Weather History for Montgomery, AL

Change the Weather History Date:

Monday, December 2, 2013

  Actual Average Record
Temperature  
Mean Temperature 60 °F 52 °F  
Max Temperature 72 °F 63 °F 85 °F (1982)
Min Temperature 48 °F 40 °F 20 °F (1876)
Degree Days  
Heating Degree Days 5 14  
Month to date heating degree days 18 28  
Since 1 July heating degree days 386 399  
Growing Degree Days 10 (Base 50)    
Moisture  
Dew Point 48 °F    
Average Humidity 67    
Maximum Humidity 93    
Minimum Humidity 41    
Precipitation  
Precipitation 0.02 in 0.17 in 2.01 in (1971)
Month to date precipitation 0.02 0.34  
Year to date precipitation 47.28 48.55  
Snow  
Snow 0.00 in 0.00 in - ()
Month to date snowfall 0.0 0.0  
Since 1 July snowfall 0.0 0.0  
Snow Depth 0.00 in    
Sea Level Pressure  
Sea Level Pressure 29.88 in    
Wind  
Wind Speed 3 mph (SSE)    
Max Wind Speed 9 mph    
Max Gust Speed 13 mph    
Visibility 10 miles    
Events Rain    
T = Trace of Precipitation, MM = Missing Value Source: NWS Daily Summary

Daily Weather History Graph

Daily Weather History Graph

Search for Another Location

Airport:

Trip Planner

Search our weather history database for the weather conditions in past years. The results will help you decide how hot, cold, wet, or windy it might be!

Date:

Astronomy

Dec. 02, 2013 Rise Set
Actual Time 6:29 AM CST 4:40 PM CST
Civil Twilight 6:03 AM CST 5:07 PM CST
Nautical Twilight 5:32 AM CST 5:37 PM CST
Astronomical Twilight 5:03 AM CST 6:07 PM CST
Moon 5:56 AM CST (12/2) 4:41 PM CST (12/2)
Length of Visible Light 11h 03m
Length of Day
10h 10m
Waning Crescent, 0% of the Moon is Illuminated
Dec 2
Waning Crescent
Dec 2
New
Dec 9
First Quarter
Dec 17
Full
Dec 25
Last Quarter

Hourly Weather History & Observations

Time (CST) Temp. Dew Point Humidity Pressure Visibility Wind Dir Wind Speed Gust Speed Precip Events Conditions
12:53 AM 48.9 °F 44.1 °F 83% 30.01 in 10.0 mi Calm Calm - N/A   Overcast
1:53 AM 50.0 °F 44.1 °F 80% 29.99 in 10.0 mi Calm Calm - N/A   Overcast
2:53 AM 48.9 °F 45.0 °F 86% 29.99 in 9.0 mi Calm Calm - 0.01 in Rain Light Rain
3:53 AM 50.0 °F 46.0 °F 86% 29.97 in 10.0 mi Calm Calm - 0.01 in   Overcast
4:53 AM 48.9 °F 46.0 °F 90% 29.96 in 10.0 mi ESE 4.6 mph - N/A   Overcast
5:53 AM 48.9 °F 46.0 °F 90% 29.96 in 10.0 mi SE 4.6 mph - N/A   Overcast
6:53 AM 48.9 °F 46.0 °F 90% 29.95 in 9.0 mi East 4.6 mph - N/A   Mostly Cloudy
7:53 AM 51.1 °F 46.9 °F 86% 29.95 in 10.0 mi Calm Calm - N/A   Overcast
8:53 AM 54.0 °F 46.9 °F 77% 29.95 in 10.0 mi Calm Calm - N/A   Overcast
9:53 AM 57.9 °F 48.0 °F 70% 29.94 in 10.0 mi South 3.5 mph - N/A   Overcast
10:53 AM 63.0 °F 50.0 °F 63% 29.91 in 10.0 mi Calm Calm - N/A   Clear
11:53 AM 66.9 °F 48.9 °F 52% 29.87 in 10.0 mi SSW 9.2 mph - N/A   Clear
12:53 PM 69.1 °F 48.0 °F 47% 29.84 in 10.0 mi Calm Calm - N/A   Scattered Clouds
1:53 PM 71.1 °F 48.0 °F 44% 29.80 in 10.0 mi Variable 3.5 mph - N/A   Partly Cloudy
2:53 PM 71.1 °F 46.9 °F 42% 29.80 in 10.0 mi Calm Calm - N/A   Partly Cloudy
3:53 PM 70.0 °F 48.0 °F 46% 29.79 in 10.0 mi South 4.6 mph - N/A   Overcast
4:53 PM 66.0 °F 48.0 °F 52% 29.79 in 10.0 mi South 4.6 mph - N/A   Mostly Cloudy
5:53 PM 64.0 °F 48.0 °F 56% 29.80 in 10.0 mi SSE 3.5 mph - N/A   Overcast
6:53 PM 63.0 °F 48.0 °F 58% 29.81 in 10.0 mi South 3.5 mph - N/A   Mostly Cloudy
7:53 PM 63.0 °F 48.9 °F 60% 29.82 in 10.0 mi South 3.5 mph - N/A   Overcast
8:53 PM 62.1 °F 50.0 °F 65% 29.82 in 10.0 mi SSE 3.5 mph - N/A   Mostly Cloudy
9:53 PM 61.0 °F 51.1 °F 70% 29.83 in 10.0 mi South 5.8 mph - N/A   Overcast
10:53 PM 62.1 °F 51.1 °F 67% 29.83 in 10.0 mi South 8.1 mph - N/A   Overcast
11:53 PM 60.1 °F 52.0 °F 75% 29.82 in 10.0 mi South 5.8 mph - N/A   Mostly Cloudy